Вернуться в каталог

STARLINK-30247

АктивенСвязьVLEO
NORAD 57644·PAYLOAD·🇺🇸 United States

Запущен Aug 17, 2023 с Cape Canaveral Space Force Station

Loading…

Ближайшие Пролёты (ближайшие 24 часа)

TLE

СвежийSource: CelesTrak SupGP

Эпоха: Sep 14, 2026, 21:26 UTC

1 57644C 23122N   26257.89354167  .00009545  00000+0  34576-3 0  2578
2 57644  43.0005 103.7644 0001309 262.2523 178.2067 15.27568849    17

Отслеживайте STARLINK-30247 в реальном времени с AllMySat

Download on the App Store